Regional Weather Roundup
Issued by NWS Little Rock, AR

Home | Current Version | Previous Version | Text Only | Print | Product List | Glossary Off
Versions: 1 2 3 4 5 6 7 8 9 10 11 12 13 14 15 16 17 18 19 20 21 22 23 24 25 26 27 28 29 30 31 32 33 34 35 36 37 38 39 40 41 42 43 44 45 46 47 48 49 50

000
ASUS44 KLZK 251805
RWRLZK

WEATHER ROUNDUP FOR ARKANSAS
NATIONAL WEATHER SERVICE LITTLE ROCK AR
100 PM CDT FRI JUL 25 2014

NOTE: "FAIR" INDICATES FEW OR NO CLOUDS BELOW 12,000 FEET WITH NO
SIGNIFICANT WEATHER AND/OR OBSTRUCTIONS TO VISIBILITY.

ARZ001-003-010-029-251900-
NORTHWEST ARKANSAS

CITY           SKY/WX    TMP DP  RH WIND       PRES   REMARKS
FAYETTEVILLE   SUNNY     84  70  62 SW15      30.02F HX  88
6HR MIN TEMP:  70; 6HR MAX TEMP:  84;

FORT SMITH     MOSUNNY   88  71  57 SW8       29.99F HX  94
6HR MIN TEMP:  72; 6HR MAX TEMP:  89;

HARRISON       MOSUNNY   85  71  63 S10G17    30.02F HX  90
6HR MIN TEMP:  65; 6HR MAX TEMP:  85;

BENTONVILLE    MOSUNNY   84  70  61 S10       30.02F HX  88
6HR MIN TEMP:  70; 6HR MAX TEMP:  84;

ROGERS         MOSUNNY   87  68  52 SW13      30.02F HX  90
6HR MIN TEMP:  69; 6HR MAX TEMP:  87;

SILOAM SPGS    SUNNY     84  68  58 SW15G22   30.02S HX  87
6HR MIN TEMP:  70; 6HR MAX TEMP:  84;

HIGHFILL       SUNNY     86  70  58 S12       30.01F HX  90
6HR MIN TEMP:  68; 6HR MAX TEMP:  86;

SPRINGDALE     MOSUNNY   84  70  61 SW15      30.03F HX  88
$$

ARZ004-005-016-251900-
NORTH CENTRAL ARKANSAS

CITY           SKY/WX    TMP DP  RH WIND       PRES   REMARKS
BATESVILLE     SUNNY     82  64  54 S6        30.04S
FLIPPIN        MOSUNNY   84  70  61 S7        30.01F HX  88
MTN HOME       SUNNY     83  69  62 VRB5      30.01F HX  86
6HR MIN TEMP:  63; 6HR MAX TEMP:  83;

$$

ARZ040-041-251900-
WEST CENTRAL ARKANSAS

CITY           SKY/WX    TMP DP  RH WIND       PRES   REMARKS
MENA           MOSUNNY   84  72  65 CALM      30.05F HX  89
MOUNT IDA      PTSUNNY   82  70  66 VRB3      30.02F HX  86
6HR MIN TEMP:  69; 6HR MAX TEMP:  83;

$$

ARZ009-017-025-026-028-251900-
NORTHEAST ARKANSAS

CITY           SKY/WX    TMP DP  RH WIND       PRES   REMARKS
CORNING          N/A     81  63  54 W3        30.06R
JONESBORO      SUNNY     80  63  55 S6        30.04F
6HR MIN TEMP:  63; 6HR MAX TEMP:  81;

NEWPORT        SUNNY     82  65  56 S6        30.05F
6HR MIN TEMP:  63; 6HR MAX TEMP:  83;

WALNUT RIDGE   SUNNY     79  63  57 SE7       30.05R
BLYTHEVILLE    SUNNY     82  63  52 NW5       30.05F
6HR MIN TEMP:  64; 6HR MAX TEMP:  82;

NW BLYTHEVILLE MOSUNNY   82  64  54 SW6       30.05
$$

ARZ022-023-033-042-044-251900-
CENTRAL ARKANSAS

CITY           SKY/WX    TMP DP  RH WIND       PRES   REMARKS
LITTLE ROCK    MOSUNNY   84  65  52 S7        30.03F HX  86
6HR MIN TEMP:  66; 6HR MAX TEMP:  84;

N LITTLE ROCK  MOSUNNY   82  69  63 SW6       30.03F HX  85
6HR MIN TEMP:  68; 6HR MAX TEMP:  82;

JACKSONVILLE   SUNNY     83  65  54 SE6       30.03F HX  85
6HR MIN TEMP:  64; 6HR MAX TEMP:  83;

SEARCY         SUNNY     83  66  56 CALM      30.04F HX  85
6HR MIN TEMP:  63; 6HR MAX TEMP:  83;

HOT SPRINGS    SUNNY     84  69  60 SW6       30.03F HX  88
6HR MIN TEMP:  70; 6HR MAX TEMP:  84;

RUSSELLVILLE   SUNNY     84  70  62 VRB3      30.01F HX  88
6HR MIN TEMP:  69; 6HR MAX TEMP:  85;

CLINTON        FAIR      82  70  65 SE8       30.03F HX  86
$$

ARZ036-251900-
EAST ARKANSAS

CITY           SKY/WX    TMP DP  RH WIND       PRES   REMARKS
WEST MEMPHIS   SUNNY     84  62  47 N6        30.03F HX  85
6HR MIN TEMP:  63; 6HR MAX TEMP:  84;

$$

ARZ050-053-066-070-073-251900-
SOUTHWEST ARKANSAS

CITY           SKY/WX    TMP DP  RH WIND       PRES   REMARKS
ARKADELPHIA    FAIR      87  72  61 SW6       30.03F HX  93
6HR MIN TEMP:  68; 6HR MAX TEMP:  87;

CAMDEN         SUNNY     86  68  54 S3        30.03F HX  89
TEXARKANA      PTSUNNY   85  73  67 VRB7      30.03F HX  91
6HR MIN TEMP:  72; 6HR MAX TEMP:  86;

EL DORADO      PTSUNNY   85  73  67 VRB6      30.04F HX  91
6HR MIN TEMP:  69; 6HR MAX TEMP:  86;

DE QUEEN       PTSUNNY   83  74  74 VRB3      30.01F HX  89
6HR MIN TEMP:  70; 6HR MAX TEMP:  84;

$$

ARZ056-057-069-251900-
SOUTHEAST ARKANSAS

CITY           SKY/WX    TMP DP  RH WIND       PRES   REMARKS
PINE BLUFF     SUNNY     83  63  50 CALM      30.03F
6HR MIN TEMP:  62; 6HR MAX TEMP:  83; 6HR PCP: TRACE;

STUTTGART      SUNNY     84  66  54 SW5       30.05F HX  86
6HR MIN TEMP:  66; 6HR MAX TEMP:  84;

MONTICELLO     SUNNY     86  65  49 VRB3      30.03F HX  88
6HR MIN TEMP:  64; 6HR MAX TEMP:  86; 6HR PCP: TRACE;


$$




USA.gov is the U.S. government's official web portal to all federal, state and local government web resources and services.